Regional Weather Roundup
Issued by NWS Bismarck, ND

Home | Current Version | Previous Version | Text Only | Print | Product List | Glossary On
Versions: 1 2 3 4 5 6 7 8 9 10 11 12 13 14 15 16 17 18 19 20 21 22 23 24 25 26 27 28 29 30 31 32 33 34 35 36 37 38 39 40 41 42 43 44 45 46 47 48 49 50
000
ASUS43 KBIS 251702
RWRBIS

NWR BROADCAST TEXT
NATIONAL WEATHER SERVICE BISMARCK ND
1200 PM CDT MON JUL 25 2016

NOTE: "FAIR" INDICATES FEW OR NO CLOUDS BELOW 12,000 FEET WITH NO
SIGNIFICANT WEATHER AND/OR OBSTRUCTIONS TO VISIBILITY.


CITY           SKY/WX    TMP DP  RH WIND       PRES   REMARKS
WILLISTON      SUNNY     84  55  36 N6        29.98S
MINOT          SUNNY     85  58  39 E5        29.97S
MINOT AFB      SUNNY     81  58  44 SE5       29.95F
BISMARCK       SUNNY     83  64  52 S9        29.98F
DICKINSON      SUNNY     85  55  35 VRB3      29.99S
GARRISON         N/A     78  62  57 CALM      29.97F
HETTINGER ARPT SUNNY     91  54  28 S7        30.02F
JAMESTOWN      SUNNY     83  67  58 S14       30.00F
CARRINGTON     FAIR      81  68  65 S8        30.01F
OAKES            N/A    N/A N/A N/A MISG        N/A
$$

CITY           SKY/WX    TMP DP  RH WIND       PRES   REMARKS
GRAND FORKS    MOSUNNY   81  58  45 S5        29.99F
GRAND FORKS AF SUNNY     81  60  47 SE6       30.00F
DEVILS LAKE    SUNNY     79  63  57 SE10      30.00F
FARGO          SUNNY     82  61  48 S7        30.02F
GWINNER        FAIR      82  64  54 S14       30.05F
LANGDON        FAIR      79  61  53 S3        30.02F
ROLLA            N/A     77  61  57 SE6       30.02F
$$

CITY           SKY/WX    TMP DP  RH WIND       PRES   REMARKS
ABERDEEN       SUNNY     85  61  44 S14       30.05F
MOBRIDGE       SUNNY     90  60  36 S16       29.99F
BUFFALO          N/A     91  51  25 MISG      29.96F
RAPID CITY     SUNNY     86  58  38 S17G26    30.08S
GLASGOW        SUNNY     83  58  42 CALM      29.99F
SIDNEY         SUNNY     84  58  40 E3        29.98S
WOLF POINT     SUNNY     84  56  38 CALM      29.99S
GLENDIVE       SUNNY     87  52  29 E8        30.00S
MILES CITY     SUNNY     86  47  25 NE6       29.99F
BAKER          SUNNY     89  53  29 NW7       30.02F
$$

CITY           SKY/WX    TMP DP  RH WIND       PRES   REMARKS
BILLINGS       MOSUNNY   81  47  30 SW8       30.06F
GREAT FALLS    SUNNY     80  43  26 W5        30.10F
$$





USA.gov is the U.S. government's official web portal to all federal, state and local government web resources and services.